Regional Weather Roundup
Issued by NWS Northern Indiana

Home | Current Version | Previous Version | Graphics & Text | Print | Product List | Glossary On
Versions: 1 2 3 4 5 6 7 8 9 10 11 12 13 14 15 16 17 18 19 20 21 22 23 24 25 26 27 28 29 30 31 32 33 34 35 36 37 38 39 40 41 42 43 44 45 46 47 48 49 50
000
ASUS43 KIWX 240800
RWRIWX

KIWX WEATHER ROUNDUP
NATIONAL WEATHER SERVICE NORTHERN INDIANA
400 AM EDT FRI OCT 24 2014

NOTE: "FAIR" INDICATES FEW OR NO CLOUDS BELOW 12,000 FEET WITH NO
SIGNIFICANT WEATHER AND/OR OBSTRUCTIONS TO VISIBILITY.

* THESE STATIONS ARE NOT UNDER NWS QUALITY CONTROL. THEY ALSO MAY NOT
  REPORT WEATHER SUCH AS PRECIPITATION OR FOG.

INZ001>027-240900-
NORTHERN INDIANA

CITY           SKY/WX    TMP DP  RH WIND       PRES   REMARKS
SOUTH BEND     CLOUDY    51  42  71 S6        30.07F
GOSHEN         CLOUDY    45  41  86 S3        30.07F
ANGOLA*        CLOUDY    37  37 100 CALM      30.08F
FORT WAYNE     PTCLDY    37  34  89 CALM      30.10F

$$
INZ028>050-240900-
CENTRAL INDIANA

CITY           SKY/WX    TMP DP  RH WIND       PRES   REMARKS
LAFAYETTE      CLOUDY    46  43  89 CALM      30.09
KOKOMO*        PTCLDY    39  36  87 S3        30.10F
MUNCIE*        PTCLDY    40  37  89 CALM      30.10S
INDIANAPOLIS   PTCLDY    45  39  79 CALM      30.09F

$$
MIZ043>046-050>051-056>058-064>065-071>073-077>080-240900-
SOUTHWEST LOWER MICHIGAN

CITY           SKY/WX    TMP DP  RH WIND       PRES   REMARKS
BATTLE CREEK   CLOUDY    44  39  82 S3        30.07F
BENTON HARBOR  CLOUDY    51  42  71 S5        30.05F
COLDWATER*     CLOUDY    38  37  97 CALM      30.08S FOG
HILLSDALE*     CLEAR     34  34 100 CALM      30.08S FOG
HOLLAND        MOCLDY    49  42  77 S6        30.05F
GRAND RAPIDS   PTCLDY    46  41  82 CALM      30.05F
KALAMAZOO      MOCLDY    48  41  76 SE3       30.06
STURGIS*       CLOUDY    45  41  87 SE3       30.07F
THREE RIVERS*  CLOUDY    46  42  87 CALM      30.07F

$$
OHZ001>008-015>018-024>025-240900-
NORTHWEST OHIO

CITY           SKY/WX    TMP DP  RH WIND       PRES   REMARKS
DEFIANCE       PTCLDY    37  34  89 CALM      30.10F
FINDLAY        CLOUDY    39  37  92 S3        30.10S
TOLEDO EXPRESS MOCLDY    35  35 100 CALM      30.10S FOG
TOLEDO METCALF MOCLDY    40  36  86 S3        30.10F
LIMA           MOCLDY    42  38  85 S5        30.10S

$$
AND FOR LAKE MICHIGAN COASTAL AND OPEN LAKE BUOY OBSERVATIONS

STATION/POSITION TEMP    WIND        PRES    VSBY  WAVE
                 AIR SEA DIR/SP/G                  HT/PER
                 (F)     (DEG/KT/KT) (MB)    (MI)  (FT/S)
CALUMET HARBOR    54     200/  6/  7 1016.5R
MICHIGAN CITY     53     150/  8/ 11   N/A
SAINT JOSEPH      52                 1017.9F
SOUTH LAKE BUOY   55 54  190/ 12/ 14 1017.4S         1/ 3

$$
&&



USA.gov is the U.S. government's official web portal to all federal, state and local government web resources and services.